Location: downtown San Diego
(32.7310°N, 117.1990°W)
Time: 08:01:16
(UTC-07:00)

Cosmos 1602 Rocket - Pass Details

Date: 14 June 2018
Orbit: 605 x 632 km, 82.5° (Epoch: 18 September)

Event Time Altitude Azimuth Distance (km) Brightness Sun altitude
Exits shadow 21:46:23 10° 204° (SSW) 1,961 5.9 -19.0°
Maximum altitude 21:50:35 49° 279° (W) 815 4.4 -19.6°
Drops below altitude 10° 21:54:55 10° 354° (N) 2,015 6.9 -20.2°
Sets 21:57:14 0° 360° (N) 2,929 7.8 -20.6°
